Location: La Brionne
(46.1728°N, 1.7849°E)
Time: 06:42:26
(UTC+00:00)

Cosmos 1674 - Pass Details

Date: 16 June 2021
Orbit: 494 x 514 km, 82.5° (Epoch: 02 August)

Event Time Altitude Azimuth Distance (km) Brightness Sun altitude
Exits shadow 21:57:09 - 217° (SW) 1,916 5.3 -15.6°
Reaches altitude 10° 21:57:44 10° 221° (SW) 1,697 5.1 -15.6°
Maximum altitude 22:01:04 31° 285° (WNW) 893 4.3 -15.9°
Drops below altitude 10° 22:04:26 10° 349° (N) 1,704 6.5 -16.2°
Sets 22:06:43 0° 0° (N) 2,591 7.4 -16.3°
